Stations météo

réclame
Mon MeteoGroup
Saint-Quentin, France (7061): Température de l'air & dewpoint: 15.06.2018 01:00:00 - 21.06.2018 01:00:00 (CEST)Saint-Quentin, France (7061): Température de l'air 5cm: 15.06.2018 01:00:00 - 21.06.2018 01:00:00 (CEST)Saint-Quentin, France (7061): Température de l'air -20cm & Température de l'air -100cm: 15.06.2018 01:00:00 - 21.06.2018 01:00:00 (CEST)Saint-Quentin, France (7061): Vitesse du vent & gusts: 15.06.2018 01:00:00 - 21.06.2018 01:00:00 (CEST)Saint-Quentin, France (7061): Direction du vent: 15.06.2018 01:00:00 - 21.06.2018 01:00:00 (CEST)Saint-Quentin, France (7061): reduced air pressure: 15.06.2018 01:00:00 - 21.06.2018 01:00:00 (CEST)Saint-Quentin, France (7061): visibility: 15.06.2018 01:00:00 - 21.06.2018 01:00:00 (CEST)Saint-Quentin, France (7061): Ensoleillement: 15.06.2018 01:00:00 - 21.06.2018 01:00:00 (CEST)Saint-Quentin, France (7061): Quantités de précipitations: 15.06.2018 01:00:00 - 21.06.2018 01:00:00 (CEST)
Date & Time tt [°C] td [°C] tt 5cm [°C] tt -20cm [°C] tt -100cm [°C] ff [km/h] ff [knt] fx [km/h] fx [knt] dd ppp [hPa] vv [km] sd [min] rr [mm]
21.06.2018 01:00:00 - - - - - - - - - - - - - -
21.06.2018 00:00:00 15,6 13,1 10,5 19,9 15,9 5 3 16 8 NW 1019,7 18 0 0,0
20.06.2018 23:00:00 18,4 14,9 17,1 19,9 15,8 11 6 19 11 NNW 1019,9 20 0 0,0
20.06.2018 22:00:00 20,1 15,1 18,3 19,9 15,8 9 5 15 8 NNW 1019,5 20 29 0,0
20.06.2018 21:00:00 23,4 16,2 23,7 19,8 15,8 6 3 16 8 N 1019,1 20 60 0,0
20.06.2018 20:00:00 24,6 15,2 27,0 19,6 15,8 10 6 18 10 NNW 1019,3 20 60 0,0
20.06.2018 19:00:00 25,3 16,4 28,6 19,4 15,8 10 6 26 14 NW 1019,6 20 56 0,0
20.06.2018 18:00:00 25,4 16,5 28,3 19,1 15,8 9 5 22 12 WNW 1019,8 20 54 0,0
20.06.2018 17:00:00 25,5 16,6 29,1 18,9 15,9 9 5 24 13 NW 1020,2 20 54 0,0
20.06.2018 16:00:00 25,3 17,5 33,1 18,7 15,8 6 3 20 11 WNW 1020,6 20 60 0,0
20.06.2018 15:00:00 24,3 17,5 29,2 18,4 15,8 10 5 23 12 WNW 1021,2 20 50 0,0
20.06.2018 14:00:00 24,0 16,8 28,4 18,3 15,8 11 6 19 10 W 1021,6 19 49 0,0
20.06.2018 13:00:00 22,8 17,0 26,6 18,2 15,8 9 5 19 10 WNW 1022,3 19 24 0,0
20.06.2018 12:00:00 22,0 16,5 25,0 18,1 15,8 8 4 16 9 NW 1022,5 20 19 0,0
20.06.2018 11:00:00 21,8 17,0 23,9 18,1 15,8 8 5 14 8 WSW 1022,7 20 21 0,0
20.06.2018 10:00:00 21,4 16,1 21,6 18,1 15,8 7 4 12 6 WSW 1022,9 20 58 0,0
20.06.2018 09:00:00 20,2 15,6 20,3 18,1 15,8 2 1 7 4 NW 1022,8 20 60 0,0
20.06.2018 08:00:00 18,3 15,5 17,6 18,2 15,8 0 0 4 2 N 1022,9 20 60 0,0
20.06.2018 07:00:00 16,2 15,2 15,2 18,2 15,8 3 1 9 5 ESE 1023,0 16 46 0,0
20.06.2018 06:00:00 16,4 15,4 15,8 18,3 15,8 6 3 8 5 N 1023,2 20 0 0,0
20.06.2018 05:00:00 16,5 15,5 16,1 18,3 15,8 2 1 8 4 ENE 1023,4 20 0 0,0
20.06.2018 04:00:00 16,7 15,6 15,9 18,3 15,8 3 2 6 4 NE 1023,7 20 0 0,0
20.06.2018 03:00:00 17,0 15,7 16,8 18,4 15,8 4 2 8 4 N 1023,9 20 0 0,0
20.06.2018 02:00:00 17,2 15,7 16,9 18,4 15,8 2 1 12 7 NNW 1024,3 20 0 0,0
20.06.2018 01:00:00 17,3 15,8 17,1 18,4 15,8 5 3 10 5 N 1024,4 20 0 0,0
20.06.2018 00:00:00 17,8 16,3 17,3 18,5 15,9 3 2 9 5 N 1024,6 20 0 0,0
19.06.2018 23:00:00 18,3 16,5 17,9 18,4 15,8 4 2 10 6 NNW 1024,7 20 0 0,0
19.06.2018 22:00:00 18,9 16,7 18,6 18,4 15,8 6 3 13 7 NNW 1024,5 20 0 0,0
19.06.2018 21:00:00 19,6 16,8 19,8 18,3 15,8 6 3 11 6 NW 1024,2 20 0 0,0
19.06.2018 20:00:00 20,4 17,0 21,3 18,3 15,8 6 4 13 7 NW 1024,3 20 0 0,0
19.06.2018 19:00:00 20,6 16,8 21,5 18,2 15,8 5 3 11 6 WNW 1024,6 20 0 0,0
19.06.2018 18:00:00 20,7 16,5 21,9 18,1 15,8 6 4 12 7 WSW 1024,8 20 0 0,0
19.06.2018 17:00:00 20,0 16,2 21,3 18,1 15,8 8 4 18 10 WSW 1025,1 20 0 0,0
19.06.2018 16:00:00 20,6 16,6 21,7 18,0 15,8 9 5 18 10 W 1025,2 20 1 0,0
19.06.2018 15:00:00 19,2 15,9 21,1 17,9 15,8 15 8 21 11 W 1025,5 20 0 0,0
19.06.2018 14:00:00 20,1 16,3 21,5 17,8 15,8 12 7 22 12 W 1025,5 20 0 0,0
19.06.2018 13:00:00 19,5 16,0 20,1 17,8 15,8 13 7 23 12 W 1025,6 20 1 0,0
19.06.2018 12:00:00 18,2 15,8 18,2 17,8 15,8 15 8 24 13 W 1025,5 20 0 0,0
19.06.2018 11:00:00 17,7 16,2 17,7 17,7 15,8 14 8 24 13 W 1025,7 20 4 0,0
19.06.2018 10:00:00 16,8 16,0 17,0 17,8 15,8 10 5 21 11 W 1025,9 4,1 0 0,0
19.06.2018 09:00:00 16,5 16,0 16,4 17,8 15,8 9 5 20 11 W 1025,4 9 0 0,2
19.06.2018 08:00:00 15,9 15,4 15,7 17,8 15,8 13 7 19 10 SW 1025,2 6 0 0,0
19.06.2018 07:00:00 15,6 15,1 15,2 17,9 15,8 10 5 14 7 SW 1025,1 5 0 0,2
19.06.2018 06:00:00 15,5 14,5 15,0 17,9 15,8 7 4 14 8 SW 1024,9 14 0 0,0
19.06.2018 05:00:00 14,9 13,9 14,7 18,0 15,8 7 4 11 6 WSW 1024,3 20 0 0,0
19.06.2018 04:00:00 14,8 13,7 14,5 18,1 15,8 7 4 13 7 SW 1024,0 20 0 0,0
19.06.2018 03:00:00 14,4 13,3 13,9 18,1 15,8 6 3 13 7 WSW 1024,0 20 0 0,0
19.06.2018 02:00:00 14,2 13,1 11,8 18,2 15,8 9 5 20 11 W 1024,1 20 0 0,0
19.06.2018 01:00:00 12,6 11,7 10,7 18,3 15,8 8 4 18 10 WNW 1023,9 20 0 0,0
19.06.2018 00:00:00 14,4 12,8 13,2 18,3 15,8 11 6 19 10 NW 1024,1 20 0 0,0
18.06.2018 23:00:00 15,3 13,7 13,4 18,3 15,8 11 6 18 10 NW 1023,8 20 0 0,0
18.06.2018 22:00:00 16,4 13,3 14,7 18,3 15,8 10 6 14 8 W 1022,9 20 28 0,0
18.06.2018 21:00:00 19,3 14,1 20,7 18,2 15,8 8 5 21 12 W 1022,5 20 60 0,0
18.06.2018 20:00:00 20,7 13,4 22,4 18,2 15,8 16 9 28 15 W 1022,0 20 53 0,0
18.06.2018 19:00:00 21,2 14,1 24,3 18,1 15,8 18 10 32 17 W 1021,9 20 57 0,0
18.06.2018 18:00:00 21,1 14,7 22,1 18,0 15,8 17 9 37 20 W 1022,0 20 23 0,0
18.06.2018 17:00:00 20,7 14,3 23,4 17,8 15,8 21 11 39 21 W 1022,3 20 27 0,0
18.06.2018 16:00:00 20,9 14,8 23,0 17,8 15,8 23 12 36 19 W 1022,4 20 24 0,0
18.06.2018 15:00:00 19,5 14,1 21,8 17,7 15,8 21 11 34 18 W 1022,4 20 8 0,0
18.06.2018 14:00:00 19,7 16,2 19,4 17,6 15,8 16 9 25 13 W 1022,3 20 9 0,0
18.06.2018 13:00:00 18,3 15,9 17,5 17,6 15,8 14 7 30 16 W 1022,3 20 0 0,0
18.06.2018 12:00:00 18,8 14,9 20,4 17,5 15,8 16 8 31 17 W 1021,9 20 9 0,0
18.06.2018 11:00:00 19,1 15,6 18,8 17,6 15,8 18 10 27 15 SW 1021,5 20 18 0,0
18.06.2018 10:00:00 16,9 15,2 16,3 17,6 15,8 14 7 23 12 SW 1021,9 16 0 0,0
18.06.2018 09:00:00 15,7 14,9 15,5 17,6 15,8 13 7 18 10 SW 1021,4 20 0 0,0
18.06.2018 08:00:00 15,3 14,5 15,3 17,7 15,8 11 6 20 11 SW 1021,1 11 0 0,0
18.06.2018 07:00:00 15,2 13,4 14,8 17,7 15,8 7 4 13 7 SW 1021,0 20 0 0,0
18.06.2018 06:00:00 14,8 12,7 13,5 17,8 15,8 10 5 15 8 SW 1020,8 20 0 0,0
18.06.2018 05:00:00 13,9 12,1 13,3 17,9 15,8 7 4 10 6 SSW 1020,4 20 0 0,0
18.06.2018 04:00:00 13,9 12,3 10,6 17,9 15,8 5 3 9 5 SSW 1020,4 20 0 0,0
18.06.2018 03:00:00 13,3 11,9 8,9 18,0 15,8 4 2 8 5 S 1020,6 20 0 0,0
18.06.2018 02:00:00 14,6 12,8 14,2 18,1 15,9 5 3 6 3 S 1020,6 20 0 0,0
18.06.2018 01:00:00 15,0 12,1 14,5 18,1 15,8 5 3 15 8 W 1020,8 20 0 0,0
18.06.2018 00:00:00 15,1 12,0 13,8 18,1 15,8 9 5 11 6 SW 1020,8 20 0 0,0
17.06.2018 23:00:00 15,6 12,0 14,9 18,2 15,9 5 3 12 6 SW 1020,8 20 0 0,0
17.06.2018 22:00:00 16,3 11,9 15,8 18,1 15,8 8 5 11 6 SW 1020,4 20 0 0,0
17.06.2018 21:00:00 17,0 12,3 16,7 18,1 15,8 8 4 15 8 WSW 1020,2 20 6 0,0
17.06.2018 20:00:00 18,8 11,4 19,8 18,0 15,8 11 6 18 10 WSW 1020,2 20 31 0,0
17.06.2018 19:00:00 18,2 10,3 19,5 17,9 15,8 13 7 23 13 WSW 1020,1 20 1 0,0
17.06.2018 18:00:00 18,1 10,5 19,7 17,8 15,8 14 7 25 13 W 1019,8 20 9 0,0
17.06.2018 17:00:00 18,3 10,4 20,5 17,8 15,9 13 7 29 16 W 1020,0 20 7 0,0
17.06.2018 16:00:00 18,9 10,2 23,0 17,6 15,8 19 10 36 20 W 1019,7 20 18 0,0
17.06.2018 15:00:00 18,6 10,7 21,4 17,6 15,8 19 10 36 19 WSW 1019,8 20 35 0,0
17.06.2018 14:00:00 18,2 11,5 17,9 17,5 15,8 21 12 35 19 WSW 1019,9 20 23 0,0
17.06.2018 13:00:00 15,7 10,0 16,8 17,5 15,8 20 11 29 16 W 1020,0 20 0 0,0
17.06.2018 12:00:00 15,7 9,6 17,9 17,5 15,9 18 10 32 18 W 1019,8 20 8 0,0
17.06.2018 11:00:00 16,3 10,2 17,3 17,5 15,8 17 9 32 17 W 1019,6 20 24 0,0
17.06.2018 10:00:00 15,1 9,2 15,9 17,6 15,8 20 11 29 16 W 1019,8 20 35 0,0
17.06.2018 09:00:00 14,4 10,2 14,5 17,7 15,8 14 7 22 12 W 1019,4 20 13 0,0
17.06.2018 08:00:00 13,5 11,0 12,8 17,7 15,8 13 7 19 10 WSW 1018,8 20 39 0,0
17.06.2018 07:00:00 12,3 11,2 10,7 17,8 15,8 8 5 13 7 WSW 1018,5 20 17 0,0
17.06.2018 06:00:00 11,8 10,7 10,4 18,0 15,9 7 4 16 9 W 1018,4 19 0 0,0
17.06.2018 05:00:00 13,1 12,0 12,3 18,0 15,8 11 6 17 9 WNW 1018,3 20 0 0,0
17.06.2018 04:00:00 12,5 11,9 11,1 18,1 15,8 7 4 9 5 WNW 1017,9 17 0 0,0
17.06.2018 03:00:00 11,5 10,9 8,0 18,3 15,8 6 3 8 4 NW 1017,8 19 0 0,0
17.06.2018 02:00:00 10,6 10,0 6,1 18,4 15,9 0 0 5 3 N 1017,8 15 0 0,0
17.06.2018 01:00:00 10,7 9,5 6,0 18,5 15,9 0 0 4 2 N 1017,4 3,7 0 0,0
17.06.2018 00:00:00 12,0 10,9 6,2 18,6 15,9 2 1 6 3 SW 1017,4 18 0 0,0
16.06.2018 23:00:00 13,0 11,1 7,0 18,6 15,8 0 0 6 4 N 1017,6 20 0 0,0
16.06.2018 22:00:00 15,9 11,5 12,7 18,6 15,8 6 3 13 7 NNW 1017,0 20 16 0,0
16.06.2018 21:00:00 17,1 12,6 16,6 18,6 15,9 8 4 16 9 NW 1016,8 20 0 0,0
16.06.2018 20:00:00 18,4 12,2 19,7 18,5 15,8 10 5 20 11 WNW 1016,6 20 18 0,0
16.06.2018 19:00:00 19,3 12,6 20,1 18,4 15,9 9 5 25 13 NW 1016,4 20 9 0,0
16.06.2018 18:00:00 19,4 11,9 21,6 18,2 15,8 15 8 27 15 WNW 1016,2 20 8 0,0
16.06.2018 17:00:00 20,0 10,7 23,3 18,1 15,9 16 9 34 18 W 1016,0 20 14 0,0
16.06.2018 16:00:00 21,5 10,3 23,7 17,9 15,8 16 8 30 16 W 1015,8 20 39 0,0
16.06.2018 15:00:00 20,1 11,3 23,7 17,8 15,8 19 10 29 16 WSW 1016,1 20 14 0,0
16.06.2018 14:00:00 18,9 11,9 23,0 17,7 15,9 13 7 24 13 WSW 1016,3 20 29 0,0
16.06.2018 13:00:00 18,6 11,7 23,1 17,7 15,9 10 6 20 11 WSW 1016,5 20 54 0,0
16.06.2018 12:00:00 17,0 9,4 20,1 17,7 15,9 6 3 15 8 SW 1016,9 20 12 0,0
16.06.2018 11:00:00 16,2 11,1 16,2 17,7 15,9 9 5 19 10 NW 1017,3 20 31 0,0
16.06.2018 10:00:00 13,7 10,9 14,1 17,7 15,9 15 8 29 15 WNW 1017,3 20 0 0,0
16.06.2018 09:00:00 13,6 11,5 14,5 17,8 15,9 9 5 16 8 W 1016,9 20 8 0,0
16.06.2018 08:00:00 12,4 11,1 12,2 18,0 15,9 5 3 10 5 W 1016,5 18 0 0,0
16.06.2018 07:00:00 11,6 11,0 8,9 18,1 15,9 4 2 8 4 W 1016,6 15 0 0,0
16.06.2018 06:00:00 10,8 10,2 8,0 18,2 15,9 3 1 5 3 WNW 1016,6 17 0 0,0
16.06.2018 05:00:00 10,4 9,2 6,9 18,3 15,9 0 0 3 2 N 1016,9 1,6 0 0,0
16.06.2018 04:00:00 11,4 9,8 9,4 18,4 15,9 2 1 11 6 WNW 1017,1 20 0 0,0
16.06.2018 03:00:00 11,8 9,9 10,8 18,5 15,9 6 4 16 8 NW 1017,5 20 0 0,0
16.06.2018 02:00:00 11,7 10,3 9,6 18,6 15,9 6 4 9 5 NW 1017,4 20 0 0,0
16.06.2018 01:00:00 11,6 10,2 7,4 18,7 15,9 4 2 9 5 NW 1017,4 20 0 0,0
16.06.2018 00:00:00 12,4 10,3 9,0 18,7 15,9 5 3 16 8 NW 1017,3 20 0 0,0
15.06.2018 23:00:00 14,2 10,8 13,2 18,7 15,9 13 7 25 13 NW 1017,3 20 0 0,0
15.06.2018 22:00:00 15,8 12,2 14,6 18,6 15,9 13 7 24 13 NNW 1016,7 20 0 0,0
15.06.2018 21:00:00 18,8 13,6 18,3 18,5 15,9 11 6 20 11 NW 1016,3 20 37 0,0
15.06.2018 20:00:00 21,8 12,4 24,3 18,3 15,9 4 2 9 5 SSE 1016,2 20 57 0,0
15.06.2018 19:00:00 23,1 11,5 24,2 18,1 16,0 0 0 16 8 N 1016,1 20 55 0,0
15.06.2018 18:00:00 22,8 11,5 24,0 17,9 16,0 9 5 17 9 WNW 1016,4 20 41 0,0
15.06.2018 17:00:00 22,4 11,2 24,1 17,5 15,9 8 4 15 8 WNW 1016,5 20 47 0,0
15.06.2018 16:00:00 21,5 11,8 24,8 17,3 15,9 6 3 17 9 NW 1016,9 20 37 0,0
15.06.2018 15:00:00 22,1 12,4 24,9 17,0 15,9 5 3 13 7 S 1016,9 20 51 0,0
15.06.2018 14:00:00 22,0 11,1 28,4 16,8 16,0 5 3 17 9 SW 1017,1 20 58 0,0
15.06.2018 13:00:00 20,4 11,3 22,3 16,7 16,0 8 4 18 10 S 1017,2 20 45 0,0
15.06.2018 12:00:00 18,6 12,3 21,7 16,7 16,0 11 6 18 10 W 1017,3 20 41 0,0
15.06.2018 11:00:00 18,4 12,2 21,0 16,7 16,0 11 6 23 12 SW 1017,4 20 60 0,0
15.06.2018 10:00:00 17,1 11,8 17,1 16,7 16,0 12 6 16 9 SW 1017,5 18 60 0,0
15.06.2018 09:00:00 15,4 11,8 15,0 16,8 16,0 5 3 11 6 SW 1017,5 20 60 0,0
15.06.2018 08:00:00 12,9 12,3 11,1 16,9 16,0 6 4 10 5 WSW 1017,4 19 44 0,0
15.06.2018 07:00:00 10,8 10,6 3,6 17,1 16,0 4 2 8 4 WSW 1017,2 17 44 0,0
15.06.2018 06:00:00 8,4 8,1 2,7 17,2 16,0 6 3 7 4 S 1017,1 0,3 0 0,0
15.06.2018 05:00:00 9,0 8,5 3,1 17,3 16,0 3 2 8 4 SSW 1016,9 0,5 0 0,0
15.06.2018 04:00:00 10,2 9,7 3,5 17,4 16,0 0 0 7 4 N 1016,8 15 0 0,0
15.06.2018 03:00:00 11,2 10,3 4,4 17,4 16,0 5 3 7 4 W 1017,0 20 0 0,0
15.06.2018 02:00:00 11,8 10,7 7,2 17,5 16,0 4 2 8 5 W 1017,2 15 0 0,0
15.06.2018 01:00:00 13,1 11,7 11,7 17,5 16,0 7 4 12 7 WNW 1017,3 20 0 0,0

tt = Température de l'air
td = dewpoint
tt 5cm = Température de l'air 5cm
tt -20cm = Température de l'air -20cm
tt -100cm = Température de l'air -100cm
ff = Vitesse du vent
fx = gusts
dd = Direction du vent
ppp = reduced air pressure
vv = visibility
sd = Ensoleillement
rr = Quantités de précipitations

stations d'obs. à proximité